Location: Dompnac
(44.5644°N, 4.1026°E)
Time: 10:31:11
(UTC+00:00)

Resurs 01 Rocket - Pass Details

Date: 19 September 2020
Orbit: 633 x 645 km, 98.0° (Epoch: 29 October)

Event Time Altitude Azimuth Distance (km) Brightness Sun altitude
Exits shadow 19:42:52 38° 59° (ENE) 996 2.3 -21.0°
Drops below altitude 10° 19:46:40 10° 2° (N) 2,052 4.5 -21.6°
Sets 19:49:00 0° 355° (N) 2,965 5.5 -22.0°
